Total_Precipitation_Accumulation
0.00 0.01 0.07 0.05 0.01 0.01 0.01 0.03 0.02 0.01 0.02 0.03 0.04 0.04 0.03 0.07 0.12 0.15 0.06 0.05 0.07 0.05 0.06 0.04 0.03 0.05 0.05 0.03 0.01 0.01 0.01 0.01 0.00 0.00 0.01 0.03 0.04 0.04 0.04 0.03 0.02 0.00 0.00
0.00 0.00 0.04 0.05 0.02 0.03 0.05 0.02 0.01 0.00 0.02 0.06 0.07 0.06 0.06 0.14 0.14 0.07 0.03 0.01 0.02 0.02 0.02 0.02 0.02 0.03 0.02 0.01 0.00 0.00 0.00 0.00 0.00 0.00 0.00 0.01 0.03 0.03 0.02 0.02 0.03 0.03 0.03
0.00 0.01 0.02 0.05 0.04 0.04 0.01 0.00 0.00 0.01 0.03 0.06 0.09 0.09 0.17 0.18 0.07 0.03 0.00 0.01 0.01 0.02 0.01 0.01 0.01 0.02 0.01 0.01 0.00 0.00 0.00 0.00 0.00 0.00 0.00 0.00 0.01 0.03 0.01 0.01 0.02 0.03 0.04
0.00 0.02 0.03 0.07 0.05 0.04 0.00 0.00 0.01 0.03 0.03 0.06 0.13 0.21 0.27 0.14 0.02 0.00 0.00 0.01 0.02 0.02 0.02 0.01 0.01 0.01 0.00 0.00 0.00 0.00 0.00 0.00 0.00 0.00 0.00 0.00 0.00 0.00 0.00 0.00 0.00 0.01 0.02
0.02 0.02 0.03 0.07 0.08 0.03 0.00 0.00 0.03 0.03 0.03 0.05 0.17 0.38 0.39 0.09 0.00 0.00 0.00 0.02 0.02 0.02 0.02 0.01 0.01 0.00 0.00 0.00 0.00 0.00 0.00 0.00 0.00 0.00 0.00 0.00 0.00 0.00 0.00 0.00 0.00 0.00 0.00
0.03 0.03 0.04 0.12 0.11 0.01 0.00 0.01 0.04 0.04 0.02 0.04 0.19 0.38 0.32 0.04 0.01 0.00 0.01 0.02 0.01 0.02 0.01 0.01 0.00 0.00 0.00 0.00 0.00 0.00 0.00 0.00 0.00 0.00 0.00 0.00 0.00 0.00 0.00 0.00 0.00 0.00 0.00
0.04 0.07 0.06 0.17 0.09 0.00 0.00 0.02 0.06 0.04 0.03 0.07 0.20 0.33 0.20 0.03 0.01 0.00 0.01 0.01 0.01 0.01 0.01 0.00 0.00 0.00 0.00 0.00 0.00 0.00 0.00 0.00 0.00 0.00 0.00 0.00 0.00 0.00 0.00 0.00 0.00 0.00 0.00
0.03 0.10 0.15 0.22 0.09 0.01 0.00 0.02 0.05 0.04 0.05 0.13 0.25 0.33 0.12 0.01 0.01 0.01 0.01 0.01 0.01 0.01 0.00 0.00 0.00 0.00 0.00 0.00 0.00 0.00 0.00 0.00 0.00 0.00 0.00 0.00 0.00 0.00 0.00 0.00 0.00 0.00 0.00
0.12 0.12 0.20 0.19 0.11 0.03 0.01 0.02 0.03 0.05 0.08 0.18 0.25 0.24 0.04 0.01 0.01 0.01 0.01 0.01 0.01 0.01 0.00 0.00 0.00 0.00 0.00 0.00 0.00 0.00 0.00 0.00 0.00 0.00 0.00 0.00 0.00 0.00 0.00 0.00 0.00 0.00 0.00
0.56 0.41 0.30 0.21 0.06 0.00 0.02 0.02 0.02 0.04 0.05 0.12 0.16 0.07 0.00 0.00 0.01 0.01 0.01 0.02 0.01 0.01 0.00 0.00 0.00 0.00 0.00 0.00 0.00 0.00 0.00 0.00 0.00 0.00 0.00 0.00 0.00 0.00 0.00 0.00 0.00 0.00 0.00
1.07 0.91 0.63 0.38 0.10 0.01 0.04 0.05 0.02 0.04 0.05 0.08 0.09 0.03 0.00 0.00 0.00 0.00 0.00 0.01 0.01 0.00 0.00 0.00 0.00 0.00 0.00 0.00 0.00 0.00 0.00 0.00 0.00 0.00 0.00 0.00 0.00 0.00 0.00 0.00 0.00 0.00 0.00
1.57 1.05 0.95 0.66 0.20 0.03 0.05 0.06 0.02 0.02 0.05 0.04 0.03 0.01 0.00 0.00 0.00 0.00 0.00 0.01 0.01 0.00 0.00 0.00 0.00 0.00 0.00 0.00 0.00 0.00 0.00 0.00 0.00 0.00 0.00 0.00 0.00 0.00 0.00 0.00 0.00 0.00 0.00
2.51 1.45 1.19 0.78 0.43 0.08 0.10 0.08 0.02 0.02 0.03 0.03 0.01 0.01 0.00 0.00 0.00 0.00 0.00 0.00 0.00 0.00 0.00 0.00 0.00 0.00 0.00 0.00 0.00 0.00 0.00 0.00 0.00 0.00 0.00 0.00 0.00 0.00 0.00 0.00 0.00 0.00 0.00
2.94 2.12 1.43 1.02 0.62 0.21 0.21 0.11 0.02 0.02 0.01 0.00 0.00 0.00 0.00 0.00 0.00 0.00 0.00 0.00 0.00 0.00 0.00 0.00 0.00 0.00 0.00 0.00 0.00 0.00 0.00 0.00 0.00 0.00 0.00 0.00 0.00 0.00 0.00 0.00 0.00 0.01 0.03
1.32 1.60 1.74 1.24 0.90 0.55 0.32 0.18 0.04 0.02 0.00 0.00 0.00 0.00 0.00 0.00 0.00 0.00 0.00 0.00 0.00 0.00 0.00 0.00 0.00 0.00 0.00 0.00 0.00 0.00 0.00 0.00 0.00 0.00 0.00 0.00 0.00 0.00 0.00 0.00 0.00 0.00 0.03
0.75 1.19 1.70 1.49 1.00 1.18 0.93 0.32 0.05 0.02 0.00 0.00 0.00 0.00 0.00 0.00 0.00 0.00 0.00 0.00 0.00 0.00 0.00 0.00 0.00 0.00 0.00 0.00 0.00 0.00 0.00 0.00 0.00 0.00 0.00 0.00 0.00 0.00 0.00 0.00 0.00 0.01 0.02
0.42 1.29 1.79 1.37 0.87 0.77 1.30 0.75 0.14 0.06 0.00 0.00 0.00 0.00 0.00 0.00 0.00 0.00 0.00 0.00 0.00 0.00 0.00 0.00 0.00 0.00 0.00 0.00 0.00 0.00 0.00 0.00 0.00 0.00 0.00 0.00 0.00 0.00 0.00 0.00 0.00 0.01 0.03
0.53 0.91 1.49 1.32 0.67 0.53 0.74 0.74 0.49 0.23 0.08 0.01 0.01 0.01 0.00 0.00 0.00 0.00 0.00 0.00 0.00 0.00 0.00 0.00 0.00 0.00 0.00 0.00 0.00 0.00 0.00 0.00 0.00 0.00 0.00 0.00 0.00 0.00 0.00 0.00 0.00 0.02 0.07
0.42 0.59 0.76 0.73 0.37 0.13 0.23 0.41 0.50 0.29 0.16 0.07 0.04 0.01 0.03 0.01 0.00 0.00 0.00 0.01 0.00 0.00 0.00 0.00 0.00 0.00 0.00 0.00 0.00 0.00 0.00 0.00 0.00 0.00 0.00 0.00 0.01 0.00 0.00 0.01 0.01 0.01 0.01
0.60 0.52 0.61 0.44 0.43 0.26 0.35 0.36 0.31 0.31 0.18 0.10 0.06 0.05 0.03 0.03 0.03 0.02 0.02 0.01 0.00 0.00 0.00 0.00 0.00 0.00 0.00 0.00 0.00 0.00 0.00 0.00 0.00 0.00 0.00 0.00 0.00 0.00 0.00 0.00 0.00 0.00 0.00
0.92 0.59 0.58 0.59 0.45 0.44 0.31 0.27 0.13 0.11 0.16 0.08 0.07 0.10 0.06 0.10 0.10 0.11 0.10 0.04 0.02 0.01 0.01 0.01 0.00 0.00 0.01 0.01 0.04 0.02 0.00 0.00 0.00 0.00 0.00 0.00 0.00 0.00 0.00 0.00 0.00 0.00 0.00
0.88 0.57 0.52 0.27 0.31 0.35 0.34 0.29 0.50 0.51 0.45 0.36 0.34 0.40 0.31 0.29 0.24 0.18 0.16 0.17 0.19 0.13 0.10 0.06 0.07 0.19 0.25 0.29 0.20 0.14 0.06 0.03 0.02 0.00 0.00 0.00 0.00 0.00 0.00 0.00 0.00 0.00 0.00
0.92 0.63 0.36 0.60 0.64 0.71 0.83 1.10 1.04 0.99 0.93 0.96 1.05 0.77 0.66 0.79 0.92 0.76 0.66 0.54 0.62 0.71 0.68 0.60 0.47 0.47 0.44 0.48 0.41 0.35 0.19 0.05 0.01 0.00 0.00 0.00 0.00 0.00 0.00 0.00 0.00 0.00 0.00
1.27 1.13 1.01 1.06 0.94 0.80 1.08 1.15 0.84 1.08 1.14 1.00 1.07 1.12 1.23 1.25 1.32 1.20 1.26 1.58 1.46 1.31 1.24 1.19 1.01 0.71 0.47 0.41 0.33 0.28 0.21 0.11 0.09 0.04 0.01 0.00 0.00 0.00 0.00 0.00 0.00 0.00 0.00
1.39 1.07 1.24 1.18 0.86 0.83 1.07 1.12 1.24 1.03 1.07 0.94 0.73 0.75 0.75 0.75 0.68 0.67 0.71 0.87 1.12 0.98 0.81 0.74 0.68 0.48 0.38 0.31 0.25 0.17 0.12 0.08 0.05 0.06 0.02 0.00 0.00 0.00 0.00 0.00 0.00 0.00 0.00
0.74 0.66 0.76 0.67 0.55 0.52 0.78 0.74 1.02 0.75 0.90 0.83 0.62 0.46 0.41 0.41 0.41 0.32 0.32 0.34 0.28 0.27 0.28 0.21 0.16 0.11 0.06 0.04 0.02 0.02 0.02 0.01 0.01 0.01 0.01 0.00 0.00 0.00 0.00 0.00 0.00 0.00 0.00